Presure
251 256 197 209 205 206 205 211 196 196 190 189 184 178 198 199 201 208 205 205 276 266 226 216 218 208 201 203 190 200 201 193 186 206 208 215 200 188 179 184 182 167 178
247 211 224 188 204 188 205 174 202 190 203 197 199 191 198 205 206 204 218 224 264 231 214 215 207 209 156 202 195 192 192 190 186 228 209 196 200 203 198 185 179 183 173
225 209 201 203 209 201 186 209 190 194 194 199 198 205 202 205 201 189 197 264 246 219 204 211 206 206 202 200 203 194 198 185 183 207 207 182 195 199 199 202 190 183 181
220 208 206 204 198 212 208 214 204 193 196 190 181 188 211 209 202 197 212 260 234 212 206 209 208 210 201 199 230 218 237 220 201 193 198 203 206 191 206 215 191 178 179
219 205 210 200 205 195 191 196 196 199 201 188 192 196 200 195 191 215 209 254 227 206 208 205 231 220 255 267 244 231 234 219 208 203 193 191 190 191 196 203 209 202 209
216 213 210 203 200 191 203 203 208 193 194 191 191 200 206 193 205 190 253 252 221 204 199 238 221 227 214 233 222 222 205 204 202 196 200 206 213 211 194 195 187 197 205
207 203 206 209 198 188 193 193 184 212 205 215 214 206 199 197 183 230 216 254 212 203 252 227 220 207 205 215 218 200 215 204 194 197 191 192 201 197 200 208 195 193 197
207 214 212 194 193 202 210 218 204 200 193 192 200 200 192 224 214 231 294 251 207 242 229 216 207 205 204 215 205 215 212 203 202 199 195 201 195 199 209 204 198 194 191
202 201 205 202 209 197 200 213 207 206 198 211 162 201 209 207 225 253 295 242 201 231 208 208 207 180 201 200 203 201 195 199 201 197 186 191 194 195 191 199 214 204 200
204 206 197 194 212 217 209 203 204 204 212 209 195 208 211 223 239 292 270 230 204 223 213 204 203 210 201 209 198 204 201 198 201 192 193 190 192 195 194 197 195 206 213
204 205 202 205 201 191 205 202 204 211 207 207 203 210 214 224 226 287 257 232 206 225 208 199 204 208 180 212 199 199 204 203 206 196 199 200 196 188 199 206 186 192 202
213 200 204 195 201 199 204 207 207 205 204 209 213 217 217 241 228 270 255 230 204 207 198 199 199 204 214 210 199 196 198 197 186 193 193 191 189 194 195 205 200 191 188
208 212 211 204 215 211 208 208 208 210 215 212 217 192 199 229 249 253 251 230 203 207 195 204 191 204 207 214 179 194 194 199 198 183 202 202 199 201 190 198 193 192 190
224 226 216 212 211 216 216 214 213 133 216 218 213 222 229 227 252 262 244 230 215 204 202 202 192 197 206 213 194 198 193 193 200 201 186 191 191 189 193 199 199 198 195
227 224 220 219 221 224 226 224 226 223 221 227 228 225 235 249 250 261 252 233 219 209 205 202 202 190 193 195 194 198 186 192 192 190 192 190 180 180 191 195 192 190 197
232 220 225 227 226 226 226 227 230 229 227 227 236 244 248 253 256 266 255 219 226 227 207 209 199 204 185 191 188 200 194 200 195 187 191 194 192 190 192 185 181 181 191
235 232 232 236 236 250 246 241 247 250 247 249 252 241 257 265 280 279 264 258 234 227 224 203 200 199 229 193 194 208 195 195 195 197 201 201 180 194 205 204 205 208 205
249 254 250 252 251 242 240 248 250 237 243 237 260 267 263 255 267 272 260 254 241 232 227 223 206 211 187 205 213 219 193 198 203 191 195 197 184 183 181 183 185 185 184
246 242 246 247 254 246 250 246 251 251 258 252 251 266 261 260 256 263 257 256 253 252 233 209 222 221 210 207 204 214 218 214 208 210 211 213 212 211 210 210 214 211 203
268 265 260 258 258 260 260 261 260 263 263 258 253 258 260 263 255 250 255 263 253 257 258 239 230 227 218 216 216 213 202 198 214 203 201 190 187 212 213 213 212 211 202
321 321 321 305 300 287 275 272 268 271 253 266 260 261 260 265 266 260 257 260 252 264 267 257 241 238 228 230 226 213 209 214 217 216 217 217 220 219 218 218 216 215 198
288 287 290 297 298 306 304 318 323 329 330 303 287 271 264 269 272 273 263 276 260 255 258 267 261 252 245 241 236 234 230 230 228 219 213 214 211 198 202 204 211 213 215
286 288 289 287 292 294 298 302 305 307 310 323 306 301 320 344 295 277 275 283 269 274 280 279 270 268 252 266 251 251 246 242 243 235 229 228 215 214 224 225 223 223 219
301 306 310 315 320 327 333 340 344 347 347 353 356 336 369 347 343 339 341 303 285 289 276 287 289 279 269 269 270 270 259 265 264 251 240 240 242 240 237 236 243 243 241
313 318 320 322 322 325 334 344 354 364 380 398 416 421 425 427 433 437 381 354 350 349 316 296 288 296 282 277 270 270 271 269 269 268 270 273 272 268 267 265 268 269 270
320 322 324 329 337 350 368 432 510 504 499 496 493 488 482 479 477 473 472 471 470 399 362 355 355 327 322 297 291 284 283 283 274 273 270 268 266 266 270 272 252 251 246
Wind_Speed
61 56 59 54 50 55 57 58 49 47 48 54 58 56 61 59 56 53 53 48 39 38 40 43 47 49 49 48 45 46 45 43 45 53 52 53 53 61 57 60 63 56 64
54 64 54 49 55 54 52 50 51 51 54 61 60 64 59 56 54 51 53 48 35 39 42 45 49 51 41 52 52 49 48 48 48 65 60 52 56 59 60 63 62 65 64
59 65 63 57 52 57 53 50 52 56 58 55 60 56 56 56 49 42 45 40 39 43 45 48 51 52 52 49 52 52 52 54 55 51 52 57 56 61 63 63 67 65 65
61 65 65 64 62 54 51 48 55 57 59 64 52 50 59 57 50 50 47 43 43 47 48 48 50 52 53 52 52 57 54 55 57 57 56 55 59 57 60 68 66 63 64
63 63 64 60 57 54 51 52 54 60 65 60 61 58 57 51 52 57 47 46 45 50 49 47 46 46 40 39 48 52 53 52 55 55 58 57 57 57 58 62 67 69 69
61 60 59 56 53 52 57 59 59 60 62 64 67 70 68 57 59 49 57 48 48 52 49 46 46 40 42 41 49 51 52 52 50 58 57 57 60 61 62 65 63 64 69
55 51 55 55 56 60 61 58 54 66 66 69 70 67 64 66 48 62 46 48 51 53 47 47 46 47 45 41 43 47 50 52 52 54 55 56 58 60 63 66 67 66 67
53 55 56 57 63 67 66 65 63 63 63 63 66 68 67 66 60 61 51 49 54 44 50 51 51 50 48 43 44 47 49 50 54 55 55 55 58 56 61 65 68 70 70
56 56 57 61 71 59 60 63 64 65 64 68 44 69 66 64 60 61 49 52 58 50 55 56 54 49 53 50 49 49 50 54 57 56 58 59 61 61 58 60 68 71 72
59 61 62 61 65 63 63 64 66 66 68 69 69 68 68 69 68 51 54 56 61 55 59 58 57 59 55 57 52 57 55 56 60 61 63 62 64 66 65 65 63 66 70
62 65 64 67 64 60 72 68 68 71 69 71 68 72 73 70 61 52 56 60 63 58 63 60 60 60 57 61 57 54 61 62 66 64 66 66 67 64 63 63 59 64 67
70 62 67 59 65 63 70 72 71 73 71 77 77 77 74 64 59 52 60 63 68 64 67 64 64 64 66 63 63 62 63 64 64 65 65 68 67 64 64 68 65 66 68
69 76 77 73 83 81 79 81 82 82 87 81 80 62 63 79 66 56 63 67 71 72 71 68 67 68 69 70 63 67 67 69 71 63 73 75 73 72 70 71 71 73 74
73 76 79 78 79 85 88 86 85 36 87 87 80 84 82 80 79 62 69 73 76 76 76 73 72 72 73 74 73 72 71 73 75 73 75 76 76 75 77 78 80 80 81
74 78 80 83 86 89 90 90 91 90 88 91 89 84 85 83 79 71 73 75 76 83 83 80 78 76 78 78 78 80 76 78 79 78 79 80 70 70 83 84 84 84 86
78 77 81 83 87 88 90 92 93 93 90 90 92 88 86 86 78 73 75 75 84 85 88 89 84 85 75 82 80 85 80 87 86 83 85 88 87 85 90 79 76 78 89
78 80 82 85 86 84 87 91 90 90 91 87 83 85 81 77 77 78 82 86 92 91 91 89 87 83 88 85 88 93 91 91 92 91 95 96 76 97 100 101 101 101 101
73 77 79 83 82 86 88 88 88 88 88 86 85 77 77 81 77 83 85 93 98 98 97 97 95 99 70 86 95 95 75 85 91 85 91 91 74 73 71 73 78 80 82
75 78 80 82 82 87 87 89 89 89 87 87 84 80 80 77 79 83 90 96 96 103 107 85 102 105 100 99 96 103 104 104 102 102 105 107 108 110 110 110 111 110 98
79 81 82 83 85 86 87 89 90 89 89 90 89 85 84 85 84 88 92 95 104 102 110 113 112 109 108 108 109 107 99 90 109 98 92 78 75 105 107 110 113 112 104
57 61 66 79 87 93 93 93 92 93 92 95 94 94 92 92 93 94 95 100 100 108 108 118 120 120 113 119 118 105 101 110 114 115 117 118 119 118 120 121 119 118 93
65 70 73 76 80 81 86 85 87 88 93 98 102 101 100 100 100 102 102 104 107 108 112 118 123 128 127 125 125 124 123 124 122 119 111 111 107 90 96 100 112 118 122
69 73 76 80 83 86 88 89 91 93 95 95 98 100 101 102 109 108 107 113 112 115 116 123 126 126 118 131 132 134 133 133 133 128 123 127 112 111 127 128 123 122 115
70 72 73 75 77 78 80 81 83 85 87 88 89 99 91 102 104 106 109 116 116 120 119 122 129 133 131 132 134 135 138 138 140 139 129 132 134 134 129 129 138 137 137
76 78 80 82 84 85 88 91 93 95 96 95 89 88 86 85 84 83 99 109 112 114 122 127 127 134 139 138 134 135 137 135 136 137 138 139 141 140 140 143 144 142 141
85 86 87 90 93 96 97 83 60 58 56 55 54 54 55 56 56 57 58 58 60 92 110 113 115 124 130 142 144 143 142 143 137 138 136 134 132 134 139 143 124 124 118
Wind_Direction
211 203 237 230 224 229 232 236 246 244 248 252 255 258 262 267 271 274 278 279 267 247 233 234 235 234 237 236 248 243 244 242 241 252 253 252 242 242 248 241 245 259 255
200 222 215 237 225 242 235 248 239 246 247 247 250 255 261 265 269 269 284 282 255 238 237 236 239 238 253 237 244 244 244 243 248 242 248 243 248 247 242 241 250 249 256
202 218 225 224 225 233 239 236 243 246 246 248 253 255 259 263 267 261 269 270 248 235 242 238 239 240 242 242 240 242 241 246 247 244 243 249 250 251 252 246 245 250 255
205 214 219 226 235 227 228 227 230 238 242 248 258 267 259 265 269 270 277 265 243 239 244 244 245 244 244 246 238 239 233 236 241 245 245 247 250 255 257 255 250 258 258
207 219 220 230 230 241 241 239 239 240 243 256 261 265 267 265 264 274 271 265 245 244 245 248 243 246 232 218 218 231 232 231 234 240 244 248 250 254 257 257 255 255 254
215 221 225 230 236 244 240 241 243 252 255 258 261 263 263 266 268 257 283 259 243 245 249 240 241 237 239 225 226 227 232 230 235 240 245 250 253 252 255 258 260 261 255
222 225 227 228 235 239 243 244 246 248 251 251 253 258 261 265 252 278 263 252 241 245 234 234 238 240 238 239 233 236 230 233 239 242 249 255 255 256 256 254 259 261 261
224 223 224 231 234 237 241 240 247 248 253 257 257 257 260 271 268 273 268 245 239 238 229 235 240 242 240 240 241 233 233 238 236 243 251 250 255 255 255 258 261 263 265
225 230 229 235 238 247 247 244 246 249 252 257 248 259 264 264 272 278 257 238 241 231 237 239 240 250 244 242 240 241 244 242 243 247 256 257 259 257 260 262 260 261 263
225 227 237 240 243 245 246 249 251 252 256 258 255 264 267 272 278 270 248 230 238 231 234 239 243 239 247 244 246 243 244 246 244 250 251 256 259 262 265 267 266 264 262
231 232 237 238 244 245 246 250 253 255 257 259 262 267 269 271 272 263 244 230 234 230 236 241 243 243 253 243 244 248 246 249 246 253 253 255 259 263 264 264 267 268 268
232 243 242 254 251 254 254 254 255 257 257 261 265 268 267 268 272 260 243 231 235 235 243 241 243 242 241 240 245 247 246 249 255 254 254 257 261 262 266 268 265 264 265
240 240 241 247 243 247 251 254 256 258 260 261 263 260 259 268 271 253 241 235 235 234 243 238 248 244 243 240 260 247 249 251 254 262 258 259 262 263 264 266 265 266 266
238 238 241 245 247 247 249 252 254 275 260 261 263 265 265 266 270 254 237 235 230 236 240 238 246 246 245 243 251 248 252 253 252 252 260 259 261 262 263 263 265 265 265
242 242 243 245 247 248 249 252 254 255 259 261 262 263 266 263 263 255 238 235 238 234 238 241 238 248 248 248 251 249 260 254 255 259 258 261 270 269 265 262 265 267 264
244 247 246 246 248 250 252 255 256 258 259 262 263 264 263 261 258 253 240 243 235 234 237 239 245 242 256 250 255 250 254 250 254 264 261 259 262 265 266 271 276 278 272
248 249 250 251 252 255 256 257 259 259 259 260 260 263 263 257 252 243 241 235 235 237 236 245 250 251 239 253 250 245 252 253 254 254 253 254 273 263 261 263 265 267 269
252 252 253 254 255 255 257 258 257 260 262 263 264 262 256 256 252 241 239 239 237 239 238 237 247 245 261 248 245 245 261 257 254 264 263 262 275 274 277 279 280 280 279
256 256 256 257 257 257 257 259 260 261 261 262 263 261 253 252 253 247 241 241 241 239 241 251 242 243 252 254 257 251 248 249 253 254 253 254 255 256 258 260 261 265 272
260 260 259 259 259 260 260 261 261 261 259 260 261 260 258 254 250 250 248 246 244 243 240 241 243 244 248 250 249 252 260 266 255 264 266 270 270 260 262 265 267 268 275
273 272 270 264 263 262 261 261 262 260 262 259 260 259 258 256 253 250 247 247 249 246 244 241 243 244 247 246 248 257 261 256 255 255 257 258 259 262 263 263 266 268 275
269 268 267 267 266 267 265 266 265 265 263 261 259 259 260 258 256 253 251 249 248 249 248 246 243 244 247 249 251 251 252 252 253 257 262 262 265 268 270 271 271 271 271
277 276 274 273 272 272 271 270 269 267 265 264 263 262 261 259 256 256 255 252 252 250 250 248 247 248 252 249 250 250 251 253 253 256 259 260 263 266 265 266 268 269 272
289 287 285 284 283 282 282 280 278 275 274 273 270 265 266 262 260 258 257 254 254 252 252 250 249 247 249 249 251 252 255 255 255 256 260 261 262 262 264 265 266 267 269
303 300 296 294 292 290 289 289 289 287 285 283 280 277 275 272 270 269 258 258 257 256 254 252 251 249 249 251 253 254 254 257 258 259 260 260 261 262 263 265 267 268 269
307 304 301 299 297 296 294 294 295 293 290 288 285 282 279 276 274 272 269 267 266 258 256 256 256 254 253 251 253 255 256 257 259 260 262 263 264 265 266 267 269 270 271